Location: Newark
(35.2672°N, 80.7344°W)
Time: 19:20:02
(UTC+00:00)

Vanguard 2 Rocket - Pass Details

Date: 21 January 2020
Orbit: 554 x 3327 km, 32.9° (Epoch: 19 February)

Event Time Altitude Azimuth Distance (km) Brightness Sun altitude
Rises 11:12:25 0° 241° (WSW) 2,910 - -15.6°
Reaches altitude 10° 11:14:25 10° 235° (SW) 2,144 - -15.2°
Exits shadow 11:14:33 11° 235° (SW) 2,094 8.4 -15.2°
Maximum altitude 11:19:07 51° 159° (SSE) 1,121 7.6 -14.3°
Drops below altitude 10° 11:26:45 10° 86° (E) 3,445 11.1 -12.8°
Sets 11:30:46 0° 82° (E) 4,893 12.0 -12.0°
